Terminal Aerodrome Forecast
Issued by NWS Twin Cities, MN

Home | Current Version | Previous Version | Graphics & Text | Print | Product List | Glossary On
Versions: 1 2 3 4 5 6 7 8 9 10 11 12 13 14 15 16 17 18 19 20 21 22 23 24 25
000
FTUS43 KMPX 060852 AAA
TAFMSP
TAF AMD
KMSP 060852Z 0609/0712 17008KT P6SM BKN090
     FM061400 22008KT P6SM SCT090
     FM061700 27008KT P6SM FEW020
     FM070100 22006KT P6SM BKN060=

USA.gov is the U.S. government's official web portal to all federal, state and local government web resources and services.